Tracking 17147 objects as of 5-July-2015
HD Live streaming from Space Station

AMC-6 (GE-6)

Track AMC-6 (GE-6) now!
AMC-6 (GE-6) is classified as:


NORAD ID: 26580
Int'l Code: 2000-067A
Perigee: 35,782.5 km
Apogee: 35,805.8 km
Inclination: 0.0 °
Period: 1,436.1 minutes
Semi major axis: 42165 km
RCS: 19.9526 m2 (large)
Launch date: October 21, 2000
Source: SOCIETE EUROPEENNE DES SATELLITES (SES)

Business (government and VSAT), media and entertainment; 28 Ku- and 24 C-band; CONUS, Canada, Mexico, Caribbean, Central America
Your satellite tracking list
Your tracking list is empty





NASA's NSSDC Master Catalog

Two Line Element Set (TLE):
1 26580U 00067A   15185.24034488 -.00000267  00000-0  00000+0 0  9992
2 26580 000.0284 322.4641 0002761 145.0864 188.9030 01.00270211 53868

Source of the keplerian elements: AFSPC

N2YO: 295